GW3313 Weather Reports


time (UTC)temp
C
wind
direction
speed
KPH
gust
KPH
rain 1hr
cm
rain 24hr
cm
rain mn
cm
humidity
%
barometer
mb
20260506150017 24 0.0 1.6 0.00 0.00 0.00 89 1010.2
20260506145017 24 0.0 3.2 0.00 0.00 0.00 89 1009.8
20260506144017 24 0.0 1.6 0.00 0.00 0.00 89 1009.8
20260506143017 24 0.0 1.6 0.00 0.00 0.00 90 1009.6
20260506142017 23 0.0 0.0 0.00 0.00 0.00 90 1009.3
20260506141019 23 0.0 0.0 0.00 0.00 0.00 90 1009.7
20260506140017 23 0.0 0.0 0.00 0.00 0.00 90 1009.6
20260506135017 23 0.0 1.6 0.00 0.00 0.00 90 1009.0
20260506134037 23 0.0 3.2 0.00 0.00 0.00 90 1009.1
20260506133017 23 0.0 3.2 0.00 0.00 0.00 91 1008.9
20260506132017 23 0.0 1.6 0.00 0.00 0.00 91 1009.0
20260506131017 23 0.0 3.2 0.00 0.00 0.00 91 1009.0
20260506130017 23 0.0 3.2 0.00 0.00 0.00 91 1008.8
20260506125017 23 0.0 4.8 0.00 0.00 0.00 91 1008.8
20260506124017 23 0.0 0.0 0.00 0.00 0.00 91 1008.8
20260506123037 23 0.0 0.0 0.00 0.00 0.00 91 1008.9
20260506122017 23 0.0 0.0 0.00 0.00 0.00 91 1009.0
20260506121017 23 0.0 0.0 0.00 0.00 0.00 91 1008.8
20260506120017 23 0.0 0.0 0.00 0.00 0.00 90 1008.6
20260506115017 23 0.0 0.0 0.00 0.00 0.00 90 1008.6
20260506114017 23 0.0 0.0 0.00 0.00 0.00 90 1008.6
20260506113017 23 0.0 0.0 0.00 0.00 0.00 90 1008.7
20260506112017 23 0.0 0.0 0.00 0.00 0.00 90 1008.7
20260506111037 23 0.0 0.0 0.00 0.00 0.00 90 1008.6
20260506110017 23 0.0 0.0 0.00 0.00 0.00 90 1008.4
20260506105017 23 0.0 0.0 0.00 0.00 0.00 90 1008.2
20260506104017 23 0.0 0.0 0.00 0.00 0.00 90 1008.4
20260506103017 23 0.0 3.2 0.00 0.00 0.00 90 1008.1
20260506102037 23 0.0 1.6 0.00 0.00 0.00 90 1008.0
20260506101037 23 0.0 8.0 0.00 0.00 0.00 90 1007.8
20260506100036 23 0.0 4.8 0.00 0.00 0.00 90 1007.7
20260506095037 23 180 1.6 9.7 0.00 0.00 0.00 90 1007.7
20260506094017 23 180 1.6 8.0 0.00 0.00 0.00 90 1007.6
20260506093017 23 180 1.6 9.7 0.00 0.00 0.00 90 1007.5
20260506092037 23 158 1.6 6.4 0.00 0.00 0.00 90 1007.5
20260506091016 23 0.0 6.4 0.00 0.00 0.00 90 1007.4
20260506090016 23 0.0 8.0 0.00 0.00 0.00 90 1007.4
20260506085016 23 0.0 6.4 0.00 0.00 0.00 90 1007.3
20260506084016 23 0.0 4.8 0.00 0.00 0.00 90 1007.4
20260506083037 23 0.0 6.4 0.00 0.00 0.00 90 1007.4
20260506082017 23 0.0 6.4 0.00 0.00 0.00 90 1007.3
20260506081016 23 0.0 3.2 0.00 0.00 0.00 90 1007.5
20260506073016 23 0.0 6.4 0.00 0.00 0.00 89 1007.8
20260506072036 23 180 1.6 11.3 0.00 0.00 0.00 89 1008.0
20260506071016 23 180 1.6 9.7 0.00 0.00 0.00 89 1008.0
20260506062016 23 180 1.6 11.3 0.00 0.00 0.00 89 1007.8
20260506061016 23 180 3.2 14.5 0.00 0.00 0.00 89 1007.8
20260506051016 23 0.0 8.0 0.00 0.00 0.00 88 1008.0
20260506045017 24 180 1.6 11.3 0.00 0.00 0.00 88 1007.8
20260506044017 24 180 1.6 11.3 0.00 0.00 0.00 87 1007.9
20260506043017 24 180 1.6 11.3 0.00 0.00 0.00 87 1008.0
20260506042017 24 0.0 6.4 0.00 0.00 0.00 87 1007.8
20260506041017 24 180 1.6 9.7 0.00 0.00 0.00 87 1007.8
20260506040017 24 180 1.6 6.4 0.00 0.00 0.00 87 1007.7
20260506035017 25 0.0 4.8 0.00 0.00 0.00 86 1007.6
20260506034037 25 0.0 6.4 0.00 0.00 0.00 86 1007.5
20260506033017 25 90 1.6 9.7 0.00 0.00 0.00 86 1007.2
20260506032017 25 180 1.6 9.7 0.00 0.00 0.00 85 1007.1
20260506031057 25 0.0 0.0 0.00 0.00 0.00 85 1007.0
20260506030037 25 0.0 6.4 0.00 0.00 0.00 84 1006.7
20260506025017 25 180 1.6 8.0 0.00 0.00 0.00 84 1006.7
20260506024017 25 180 1.6 12.9 0.00 0.00 0.00 83 1006.5
20260506023016 25 180 1.6 6.4 0.00 0.00 0.00 82 1006.3
20260506022016 25 135 1.6 4.8 0.00 0.00 0.00 82 1005.9
20260506021016 25 68 1.6 6.4 0.00 0.00 0.00 81 1005.8
20260506020036 26 0.0 3.2 0.00 0.00 0.00 80 1005.7
20260506015037 26 0.0 3.2 0.00 0.00 0.00 79 1005.6
20260506014017 26 0.0 4.8 0.00 0.00 0.00 79 1005.6
20260506013037 26 0.0 1.6 0.00 0.00 0.00 77 1005.5
20260506012037 26 0.0 1.6 0.00 0.00 0.00 76 1005.6
20260506011037 27 0.0 1.6 0.00 0.00 0.00 76 1005.7
20260506010017 27 0.0 3.2 0.00 0.00 0.00 75 1005.6
20260506005017 27 0.0 3.2 0.00 0.00 0.00 75 1005.6
20260506004036 27 0.0 4.8 0.00 0.00 0.00 74 1005.3
20260506003017 27 0.0 3.2 0.00 0.00 0.00 74 1005.5
20260506002017 27 180 1.6 8.0 0.00 0.00 0.00 73 1005.3
20260506001016 28 180 1.6 8.0 0.00 0.00 0.00 73 1005.2
20260506000016 28 180 1.6 9.7 0.00 0.00 0.00 72 1005.2
20260505235017 28 0.0 11.3 0.00 0.00 0.00 72 1005.2
20260505234016 28 180 1.6 9.7 0.00 0.00 0.00 71 1005.1
20260505233016 28 158 1.6 8.0 0.00 0.00 0.00 71 1005.0
20260505232016 28 135 1.6 4.8 0.00 0.00 0.00 71 1005.1
20260505231016 28 180 1.6 6.4 0.00 0.00 0.00 70 1005.1
20260505230016 28 180 1.6 9.7 0.00 0.00 0.00 69 1005.0
20260505225016 28 180 1.6 14.5 0.00 0.00 0.00 69 1005.1
20260505224016 28 158 1.6 8.0 0.00 0.00 0.00 69 1005.0
20260505223016 28 158 1.6 16.1 0.00 0.00 0.00 69 1005.1
20260505222036 28 180 1.6 11.3 0.00 0.00 0.00 68 1004.9
20260505221016 28 158 1.6 11.3 0.00 0.00 0.00 68 1005.1
20260505220016 28 180 1.6 11.3 0.00 0.00 0.00 69 1005.2
20260505215016 28 158 3.2 12.9 0.00 0.00 0.00 68 1005.3
20260505214016 28 180 3.2 11.3 0.00 0.00 0.00 68 1005.5
20260505213016 28 180 4.8 19.3 0.00 0.00 0.00 68 1005.5
20260505212016 29 158 3.2 14.5 0.00 0.00 0.00 67 1005.5
20260505211016 28 180 3.2 11.3 0.00 0.00 0.00 68 1005.8
20260505210016 28 180 4.8 17.7 0.00 0.00 0.00 69 1005.9
20260505205016 28 158 1.6 16.1 0.00 0.00 0.00 68 1006.0
20260505204016 28 180 3.2 16.1 0.00 0.00 0.00 70 1006.3
20260505203016 27 158 1.6 12.9 0.00 0.00 0.00 71 1006.7
20260505202016 27 180 3.2 11.3 0.00 0.00 0.00 72 1006.8
20260505201016 27 180 3.2 14.5 0.00 0.00 0.00 72 1006.9
20260505200016 27 203 3.2 14.5 0.00 0.00 0.00 72 1006.8
20260505195016 27 158 1.6 6.4 0.00 0.00 0.00 73 1007.1
20260505194016 27 180 3.2 19.3 0.00 0.00 0.00 74 1007.0
20260505193016 27 158 3.2 12.9 0.00 0.00 0.00 74 1007.1
20260505192015 27 180 1.6 12.9 0.00 0.00 0.00 75 1007.3
20260505191016 26 180 3.2 24.1 0.00 0.00 0.00 75 1007.3
20260505190016 26 180 1.6 9.7 0.00 0.00 0.00 76 1007.5
20260505185016 26 158 1.6 14.5 0.00 0.00 0.00 77 1007.7
20260505184015 26 180 3.2 11.3 0.00 0.00 0.00 77 1007.8
20260505183036 26 180 1.6 9.7 0.00 0.00 0.00 79 1007.9
20260505182015 25 158 3.2 12.9 0.00 0.00 0.00 79 1007.9
20260505181016 25 158 1.6 14.5 0.00 0.00 0.00 81 1007.9
20260505180016 25 180 1.6 12.9 0.00 0.00 0.00 82 1008.1
20260505175016 24 158 1.6 8.0 0.00 0.00 0.00 83 1008.4
20260505174016 24 158 1.6 6.4 0.00 0.00 0.00 84 1008.3
20260505173016 23 180 1.6 8.0 0.00 0.00 0.00 84 1008.4
20260505172015 23 203 1.6 8.0 0.00 0.00 0.00 84 1008.4
20260505171016 23 180 1.6 11.3 0.00 0.00 0.00 84 1008.4
20260505170015 23 180 1.6 9.7 0.00 0.00 0.00 85 1008.5
20260505165015 23 180 1.6 11.3 0.00 0.00 0.00 86 1008.3
20260505164015 23 180 1.6 16.1 0.00 0.00 0.00 86 1008.4
20260505163015 22 180 1.6 9.7 0.00 0.00 0.00 87 1008.4
20260505162015 22 180 1.6 8.0 0.00 0.00 0.00 88 1008.5
20260505161016 22 158 1.6 8.0 0.00 0.00 0.00 89 1008.4
20260505153018 21 0.0 4.8 0.00 0.00 0.00 89 1008.4
20260505152017 21 180 1.6 12.9 0.00 0.00 0.00 90 1008.3
20260505151038 21 0.0 6.4 0.00 0.00 0.00 90 1008.2